Location: Grust
(42.8833°N, 0.0333°W)
Time: 20:15:45
(UTC+00:00)

Atlas Centaur 2 - Pass Details

Date: 25 October 2020
Orbit: 459 x 1309 km, 30.4° (Epoch: 22 November)

Event Time Altitude Azimuth Distance (km) Brightness Sun altitude
Rises 19:15:47 0° 239° (WSW) 4,262 6.6 -25.2°
Reaches altitude 10° 19:19:06 10° 230° (SW) 3,316 5.8 -25.8°
Maximum altitude 19:26:19 31° 172° (S) 2,067 4.0 -27.1°
Enters shadow 19:27:26 30° 158° (SSE) 2,091 3.9 -27.3°
